[[{"header":{"parameterUnit":"m.s-1","parameterCategory":1,"la1":30.2991,"la2":30.254,"lo1":-89.0895,"lo2":-89.0444,"dy":0.0017,"dx":0.0017,"nx":28,"ny":28,"refTime":"2024-02-24T09:00:00:Z","depth":0,"parameterNumber":2,"parameterNumberName":"U-component_of_WINDS"},"data":[0,0,0,0,0,0,0,0,0,0,0,0,0,0,0,0,0,0,0,0,0,0,0,0,0,0,0,0,0,0,0,0,0,0,0,0,0,0,0,0,0,0,0,0,0,0,0,0,0,0,0,0,0,0,0,0,0,0,1.3732,1.3732,0,1.3754,1.3755,1.3755,1.3726,1.3725,1.3724,1.3723,1.3745,1.3746,1.3748,0,0,0,0,0,0,0,0,0,0,0,0,0,1.3665,1.3666,1.3732,1.3732,1.3733,1.3754,1.3755,1.3755,1.3726,1.3725,1.3723,1.3722,1.3744,1.3746,1.3748,0,0,0,0,0,0,0,0,0,0,0,0,0,1.3691,1.3667,1.3732,1.3721,1.372,1.3754,1.3755,1.3755,1.3726,1.3725,1.3723,1.3722,1.3744,1.3746,1.3748,1.3794,0,0,1.3755,1.3756,0,0,0,0,0,0,0,0,1.369,1.3694,1.3722,1.3722,1.3721,1.3736,1.3739,1.3768,1.3727,1.3724,1.3723,1.3721,1.3743,1.3745,1.3753,1.3795,1.3796,1.3756,1.3757,1.3758,1.3759,0,0,0,0,0,0,0,1.3688,1.3693,1.3741,1.3723,1.3722,1.3715,1.3717,1.3744,1.3742,1.3724,1.3722,1.3725,1.3742,1.3751,1.3753,1.3797,1.3756,1.3758,1.3759,1.376,1.388,1.3881,0,0,0,0,0,0,1.3688,1.3691,1.374,1.3742,1.3701,1.3717,1.372,1.3733,1.3742,1.3741,1.3726,1.3724,1.3747,1.375,1.3754,1.3809,1.3758,1.376,1.3762,1.3878,1.388,1.3882,0,0,0,0,0,0,1.3686,1.3692,1.3739,1.3716,1.3721,1.372,1.3735,1.3734,1.3742,1.3743,1.3743,1.3735,1.3746,1.3751,1.3785,1.381,1.3761,1.3763,1.3876,1.3878,1.3881,1.392,0,0,0,0,0,0,1.3684,1.3692,1.3709,1.3717,1.3723,1.377,1.3736,1.3735,1.3746,1.3743,1.3752,1.3752,1.3745,1.3782,1.3787,1.3812,1.3765,1.3873,1.3877,1.388,1.3917,1.3924,1.393,0,0,0,0,0,1.3682,1.3719,1.371,1.3716,1.3744,1.3771,1.3775,1.3767,1.3748,1.3766,1.3767,1.3751,1.3806,1.3785,1.3791,1.3817,1.3872,1.3876,1.388,1.3914,1.3923,1.393,0,0,0,0,0,0,1.3714,1.372,1.371,1.375,1.3761,1.3766,1.3788,1.3777,1.3792,1.3788,1.3778,1.378,1.3817,1.3821,1.3797,1.3863,1.3836,1.3841,1.386,1.3868,1.3875,1.3873,1.3767,0,0,0,0,0,1.3726,1.3747,1.3751,1.3786,1.3792,1.379,1.3801,1.3794,1.3804,1.3809,1.3812,1.3822,1.3842,1.3855,1.3873,1.3917,1.3919,1.3938,1.3945,1.395,1.3955,1.398,1.3989,1.3895,1.3895,1.3895,0,0,1.375,1.3756,1.377,1.3793,1.38,1.3823,1.3793,1.3818,1.3835,1.3812,1.3845,1.3848,1.3859,1.3899,1.3917,1.3903,1.3982,1.3955,1.396,1.3962,1.3985,1.3994,1.4002,1.3898,1.3897,1.3897,0,0,1.3807,1.3813,1.3844,1.3852,1.3863,1.3862,1.3869,1.3877,1.3878,1.3911,1.3895,1.3915,1.3949,1.3958,1.3967,1.4028,1.4015,1.4034,1.4069,1.4093,1.4101,1.4107,1.413,1.4138,1.4039,1.4039,1.4039,0,1.3836,1.3869,1.3861,1.3888,1.3898,1.3879,1.3911,1.3919,1.3936,1.3944,1.3928,1.3971,1.3977,1.402,1.4035,1.4042,1.4051,1.4033,1.4101,1.4107,1.4113,1.4135,1.4143,1.4041,1.4041,1.4041,1.4041,0,1.3905,1.3929,1.3952,1.397,1.3983,1.4012,1.4008,1.4023,1.4015,1.4015,1.405,1.4057,1.4076,1.4086,1.4078,1.4127,1.4119,1.4102,1.4074,1.4124,1.4145,1.4153,1.4045,1.4044,1.4043,1.4043,0,0,1.3981,1.3995,1.4004,1.4012,1.4024,1.4042,1.4071,1.409,1.4104,1.4116,1.414,1.417,1.4155,1.4165,1.4159,1.418,1.423,1.4161,1.4161,1.4174,1.4286,1.4298,1.4308,1.4221,1.4222,1.4224,1.4285,0,1.4038,1.4088,1.4082,1.4129,1.4152,1.4134,1.4159,1.417,1.4171,1.419,1.4191,1.4213,1.4191,1.4197,1.4217,1.4219,1.4252,1.4215,1.4244,1.4245,1.4242,1.4318,1.4332,1.4389,1.4293,1.4294,1.4295,0,1.4111,1.4128,1.4178,1.4188,1.4197,1.4219,1.4238,1.4256,1.4268,1.4267,1.4279,1.4269,1.4298,1.427,1.4311,1.4285,1.4297,1.43,1.4302,1.4304,1.4273,1.4324,1.4407,1.4416,1.4307,1.4306,1.4305,0,1.4164,1.4198,1.4232,1.424,1.4252,1.4268,1.4274,1.4284,1.4297,1.4313,1.4321,1.434,1.4351,1.4366,1.4362,1.4341,1.4403,1.4375,1.4404,1.4404,1.4418,1.4417,1.4505,1.4425,1.4425,1.4424,1.4424,0,1.4228,1.426,1.4256,1.4277,1.4312,1.4305,1.434,1.4344,1.4353,1.4375,1.4361,1.4382,1.4375,1.4396,1.4393,1.4427,1.4432,1.4433,1.4431,1.4434,1.4434,1.4442,1.4438,1.4427,1.4426,1.4426,1.4425,0,1.4292,1.4291,1.4328,1.4337,1.434,1.4365,1.4373,1.4393,1.4394,1.4422,1.4428,1.4429,1.4453,1.445,1.4476,1.4474,1.4517,1.4511,1.4514,1.4512,1.4543,1.454,1.4639,1.4652,1.4562,1.4563,1.4564,0,1.4334,1.4358,1.437,1.4384,1.4391,1.4414,1.4427,1.4421,1.4435,1.4451,1.447,1.4493,1.4511,1.455,1.4553,1.4573,1.4568,1.4601,1.4571,1.4573,1.4569,1.4568,1.4571,1.4607,1.4608,1.4609,1.461,0,1.4408,1.4407,1.4427,1.4447,1.4463,1.4479,1.4492,1.4505,1.45,1.4517,1.4542,1.4556,1.4584,1.4607,1.4626,1.4632,1.4621,1.4619,1.4627,1.463,1.4631,1.4632,1.4531,1.4617,1.4616,1.4616,1.4615,1.4615,1.4463,1.4484,1.4496,1.4519,1.4529,1.4543,1.4563,1.4566,1.4587,1.4609,1.4604,1.4632,1.4644,1.467,1.4678,1.47,1.4688,1.4699,1.4702,1.4706,1.471,1.4628,1.4703,1.4703,1.4703,1.4703,1.4703,0,1.4538,1.4545,1.4566,1.4586,1.4605,1.4592,1.4607,1.4624,1.4649,1.4661,1.4679,1.4708,1.4731,1.4736,1.4758,1.4775,1.477,1.4781,1.478,1.4781,1.4719,1.471,1.4784,1.4784,1.4784,1.4784,1.4784,1.4784,1.4579,1.4614,1.4614,1.4655,1.4661,1.4689,1.4699,1.4712,1.4722,1.4755,1.4774,1.4777,1.4787,1.481,1.483,1.4831,1.484,1.4854,1.4853,1.4794,1.4786,1.4778,1.477,1.4855,1.4855,1.4914,1.4914,1.4915]},{"header":{"parameterUnit":"m.s-1","parameterCategory":1,"la1":30.2991,"la2":30.254,"lo1":-89.0895,"lo2":-89.0444,"dy":0.0017,"dx":0.0017,"nx":28,"ny":28,"refTime":"2024-02-24T09:00:00:Z","depth":0,"parameterNumber":3,"parameterNumberName":"V-component_of_WINDS"},"data":[0,0,0,0,0,0,0,0,0,0,0,0,0,0,0,0,0,0,0,0,0,0,0,0,0,0,0,0,0,0,0,0,0,0,0,0,0,0,0,0,0,0,0,0,0,0,0,0,0,0,0,0,0,0,0,0,0,0,-1.9757,-1.9758,0,-1.9861,-1.9862,-1.9863,-1.9884,-1.9883,-1.9882,-1.9881,-1.9988,-1.9991,-1.9995,0,0,0,0,0,0,0,0,0,0,0,0,0,-1.9579,-1.9582,-1.9757,-1.9758,-1.976,-1.9861,-1.9862,-1.9864,-1.9884,-1.9883,-1.9882,-1.9881,-1.9987,-1.9991,-1.9995,0,0,0,0,0,0,0,0,0,0,0,0,0,-1.9667,-1.9583,-1.9757,-1.9782,-1.9785,-1.986,-1.9862,-1.9864,-1.9884,-1.9883,-1.9882,-1.9881,-1.9985,-1.999,-1.9996,-2.0053,0,0,-2.0012,-2.0014,0,0,0,0,0,0,0,0,-1.9662,-1.9673,-1.9777,-1.978,-1.9784,-1.9858,-1.9838,-1.9927,-1.9884,-1.9847,-1.9881,-1.988,-1.9946,-1.9954,-1.9976,-2.0058,-2.0063,-2.0013,-2.0016,-2.0018,-2.002,0,0,0,0,0,0,0,-1.9655,-1.9669,-1.9798,-1.9779,-1.9783,-1.9789,-1.98,-1.9855,-1.9902,-1.985,-1.9852,-1.9864,-1.9947,-1.9971,-1.9979,-2.0064,-2.0012,-2.0017,-2.0021,-2.0023,-2.0201,-2.0202,0,0,0,0,0,0,-1.9645,-1.9664,-1.9795,-1.9801,-1.9719,-1.9793,-1.9805,-1.9836,-1.9901,-1.991,-1.9864,-1.9864,-1.9962,-1.9973,-1.9983,-2.0056,-2.0018,-2.0023,-2.0026,-2.02,-2.0201,-2.0203,0,0,0,0,0,0,-1.9641,-1.9656,-1.9791,-1.9733,-1.9751,-1.9797,-1.9831,-1.9838,-1.9862,-1.9912,-1.9921,-1.988,-1.9962,-1.9975,-2.0036,-2.006,-2.0026,-2.003,-2.0198,-2.02,-2.0202,-2.0201,0,0,0,0,0,0,-1.9636,-1.9655,-1.9676,-1.9733,-1.9754,-1.9841,-1.9833,-1.9841,-1.9871,-1.9872,-1.9929,-1.9937,-1.9962,-2.0028,-2.0041,-2.0066,-2.0035,-2.0196,-2.0199,-2.0201,-2.0199,-2.0203,-2.0206,0,0,0,0,0,-1.9629,-1.9671,-1.9677,-1.9693,-1.9781,-1.9843,-1.9854,-1.9882,-1.9873,-1.9896,-1.9928,-1.9935,-2.0055,-2.0034,-2.0049,-2.0076,-2.0194,-2.0198,-2.0201,-2.0198,-2.0202,-2.0206,0,0,0,0,0,0,-1.9615,-1.9679,-1.9686,-1.9748,-1.979,-1.9846,-1.9875,-1.9886,-1.9931,-1.9929,-1.9962,-1.9974,-2.0034,-2.0061,-2.0037,-2.0137,-2.0124,-2.0131,-2.0116,-2.0121,-2.0125,-2.0117,-2.0039,0,0,0,0,0,-1.9619,-1.9663,-1.9717,-1.9767,-1.9787,-1.9828,-1.9855,-1.9873,-1.9918,-1.9935,-1.9972,-2.0016,-2.0063,-2.0094,-2.014,-2.0204,-2.0217,-2.023,-2.0234,-2.0236,-2.0242,-2.0279,-2.0286,-2.0214,-2.0214,-2.0214,0,0,-1.9628,-1.9669,-1.9694,-1.9765,-1.9799,-1.9845,-1.9842,-1.989,-1.9925,-1.9943,-2.0003,-2.0032,-2.0082,-2.0145,-2.0175,-2.017,-2.0265,-2.0241,-2.0242,-2.0246,-2.0284,-2.029,-2.0296,-2.0217,-2.0216,-2.0216,0,0,-1.9668,-1.9702,-1.9748,-1.9783,-1.9836,-1.9863,-1.9874,-1.993,-1.995,-2.0011,-2.0026,-2.0068,-2.0148,-2.0185,-2.0213,-2.027,-2.0279,-2.0284,-2.0303,-2.0339,-2.0345,-2.035,-2.0371,-2.0378,-2.0289,-2.0289,-2.0289,0,-1.9672,-1.9741,-1.977,-1.9819,-1.985,-1.9869,-1.9917,-1.9949,-2.0014,-2.0036,-2.003,-2.0133,-2.0168,-2.0241,-2.0255,-2.0278,-2.0292,-2.0277,-2.0341,-2.0347,-2.0352,-2.0373,-2.0381,-2.029,-2.029,-2.029,-2.029,0,-1.9745,-1.9793,-1.9823,-1.9887,-1.9921,-1.9969,-2.0006,-2.0038,-2.0054,-2.0082,-2.0145,-2.0189,-2.0245,-2.0264,-2.0279,-2.034,-2.0335,-2.0335,-2.0323,-2.0359,-2.0379,-2.0387,-2.029,-2.029,-2.029,-2.029,0,0,-1.9776,-1.9857,-1.9868,-1.9898,-1.9958,-1.9996,-2.0046,-2.0102,-2.0129,-2.0174,-2.0217,-2.0286,-2.0287,-2.032,-2.034,-2.0372,-2.0416,-2.0368,-2.037,-2.0376,-2.0487,-2.0487,-2.0496,-2.0423,-2.0424,-2.0425,-2.0483,0,-1.9824,-1.9912,-1.9941,-2.0015,-2.006,-2.0081,-2.0124,-2.0167,-2.0195,-2.0239,-2.027,-2.0319,-2.0316,-2.0337,-2.0369,-2.0403,-2.0439,-2.04,-2.0464,-2.0466,-2.045,-2.0506,-2.0506,-2.0558,-2.0491,-2.0493,-2.0494,0,-1.989,-1.9937,-2.0015,-2.0073,-2.0093,-2.0131,-2.0186,-2.0227,-2.0277,-2.0296,-2.0334,-2.0352,-2.0405,-2.0391,-2.0467,-2.044,-2.0468,-2.0489,-2.0492,-2.0499,-2.0482,-2.0515,-2.0575,-2.0583,-2.0506,-2.0505,-2.0504,0,-1.9906,-1.9989,-2.0048,-2.0072,-2.014,-2.0167,-2.0197,-2.0245,-2.0278,-2.0326,-2.0348,-2.0402,-2.0431,-2.0473,-2.0506,-2.0492,-2.0579,-2.0567,-2.0597,-2.0596,-2.0613,-2.0612,-2.0679,-2.0631,-2.0631,-2.0631,-2.0631,0,-1.9956,-2.0004,-2.0056,-2.0092,-2.0146,-2.018,-2.0234,-2.0265,-2.0308,-2.0351,-2.0372,-2.0412,-2.0453,-2.0499,-2.0525,-2.0585,-2.0598,-2.0615,-2.0621,-2.0613,-2.0611,-2.0632,-2.0629,-2.0633,-2.0633,-2.0632,-2.0632,0,-1.9983,-2.002,-2.0085,-2.0145,-2.0162,-2.0199,-2.0251,-2.0287,-2.0317,-2.0372,-2.0387,-2.0434,-2.049,-2.0527,-2.0597,-2.0615,-2.068,-2.0685,-2.0663,-2.0666,-2.0694,-2.0692,-2.0778,-2.0792,-2.0733,-2.0734,-2.0734,0,-2.0012,-2.005,-2.0114,-2.0145,-2.0175,-2.0223,-2.0257,-2.0293,-2.0328,-2.0389,-2.0418,-2.0475,-2.0522,-2.061,-2.0652,-2.0706,-2.0714,-2.074,-2.0722,-2.0713,-2.0715,-2.0713,-2.0717,-2.0743,-2.0743,-2.0744,-2.0744,0,-2.0061,-2.0078,-2.0126,-2.0181,-2.0221,-2.0266,-2.0311,-2.0335,-2.0379,-2.0417,-2.0474,-2.0511,-2.0584,-2.0641,-2.0701,-2.0732,-2.0746,-2.075,-2.076,-2.0752,-2.0738,-2.0747,-2.0672,-2.0747,-2.0747,-2.0747,-2.0747,-2.0746,-2.0091,-2.0125,-2.0177,-2.023,-2.0268,-2.0311,-2.0348,-2.0384,-2.0432,-2.0495,-2.0513,-2.0574,-2.0625,-2.0706,-2.0739,-2.0787,-2.0785,-2.0799,-2.0803,-2.0806,-2.0806,-2.073,-2.0798,-2.0798,-2.0798,-2.0798,-2.0798,0,-2.0141,-2.0176,-2.0224,-2.0288,-2.033,-2.034,-2.0391,-2.0426,-2.0479,-2.0526,-2.0573,-2.064,-2.0696,-2.0743,-2.0801,-2.0831,-2.0839,-2.0845,-2.0843,-2.0851,-2.0805,-2.0791,-2.0838,-2.0838,-2.0838,-2.0838,-2.0838,-2.0838,-2.0172,-2.0232,-2.0256,-2.0336,-2.0371,-2.043,-2.0459,-2.0498,-2.0536,-2.061,-2.0657,-2.0687,-2.0735,-2.0797,-2.085,-2.0862,-2.0883,-2.0888,-2.0902,-2.0858,-2.0854,-2.0849,-2.0836,-2.0892,-2.0892,-2.0944,-2.0945,-2.0945]}]]